Weather History for Mackall AAF, NC

Change the Weather History Date:

Saturday, February 8, 2014

  Actual Average Record
Temperature  
Mean Temperature 42 °F -  
Max Temperature 52 °F 55 °F 74 °F (2009)
Min Temperature 32 °F 33 °F 23 °F (2006)
Degree Days  
Heating Degree Days 22    
Moisture  
Dew Point 33 °F    
Average Humidity 78    
Maximum Humidity 99    
Minimum Humidity 45    
Precipitation  
Precipitation 0.00 in - - ()
Sea Level Pressure  
Sea Level Pressure 30.22 in    
Wind  
Wind Speed 2 mph (NNE)    
Max Wind Speed 5 mph    
Max Gust Speed -    
Visibility 11 miles    
Events      
Averages and records for this station are not official NWS values.
T = Trace of Precipitation, MM = Missing Value Source: NWS Daily Summary

Daily Weather History Graph

Daily Weather History Graph

Search for Another Location

Airport:

Trip Planner

Search our weather history database for the weather conditions in past years. The results will help you decide how hot, cold, wet, or windy it might be!

Date:

Astronomy

Feb. 08, 2014 Rise Set
Actual Time 7:10 AM EST 5:53 PM EST
Civil Twilight 6:44 AM EST 6:20 PM EST
Nautical Twilight 6:14 AM EST 6:50 PM EST
Astronomical Twilight 5:45 AM EST 7:19 PM EST
Moon 12:50 PM EST (2/8) 2:18 AM EST (2/8)
Length of Visible Light 11h 35m
Length of Day
10h 42m
Waxing Gibbous, 68% of the Moon is Illuminated
Feb 8
Waxing Gibbous
Feb 14
Full
Feb 22
Last Quarter
Mar 1
New
Mar 8
First Quarter

Hourly Weather History & Observations

Time (EST) Temp. Windchill Dew Point Humidity Pressure Visibility Wind Dir Wind Speed Gust Speed Precip Events Conditions
12:56 AM 33.3 °F - 32.7 °F 98% 30.28 in 9.0 mi East 2.3 mph - N/A   Mostly Cloudy
1:56 AM 33.4 °F - 32.4 °F 96% 30.28 in 10.0 mi North 2.3 mph - N/A   Mostly Cloudy
2:56 AM 33.3 °F 30.2 °F 32.4 °F 96% 30.28 in 11.0 mi NNW 3.5 mph - N/A   Mostly Cloudy
3:56 AM 33.3 °F 28.9 °F 32.4 °F 96% 30.27 in 10.0 mi NNW 4.6 mph - N/A   Mostly Cloudy
4:56 AM 33.8 °F - 32.4 °F 94% 30.26 in 12.0 mi ENE 1.2 mph - N/A   Mostly Cloudy
5:56 AM 34.0 °F - 32.5 °F 94% 30.25 in 11.0 mi NW 2.3 mph - N/A   Mostly Cloudy
6:56 AM 35.1 °F - 33.1 °F 92% 30.25 in 11.0 mi North 1.2 mph - N/A   Overcast
7:56 AM 36.1 °F - 33.8 °F 91% 30.24 in 11.0 mi Variable 2.3 mph - N/A   Mostly Cloudy
8:56 AM 38.3 °F - 33.3 °F 82% 30.28 in 12.0 mi Calm Calm - N/A   Partly Cloudy
9:56 AM 40.3 °F - 33.3 °F 76% 30.29 in 12.0 mi North 2.3 mph - N/A   Clear
10:56 AM 42.6 °F - 31.5 °F 65% 30.30 in 12.0 mi NNE 2.3 mph - N/A   Clear
11:56 AM 45.0 °F - 30.2 °F 56% 30.25 in 12.0 mi NNE 2.3 mph - N/A   Clear
12:56 PM 48.2 °F - 29.7 °F 49% 30.23 in 12.0 mi Variable 3.5 mph - N/A   Clear
1:56 PM 50.0 °F - 30.7 °F 48% 30.17 in 12.0 mi North 4.6 mph - N/A   Clear
2:56 PM 50.7 °F - 31.3 °F 47% 30.14 in 12.0 mi Variable 3.5 mph - N/A   Clear
3:56 PM 52.0 °F - 30.9 °F 45% 30.14 in 12.0 mi Variable 2.3 mph - N/A   Clear
4:56 PM 51.8 °F - 32.9 °F 49% 30.14 in 12.0 mi ENE 3.5 mph - N/A   Clear
5:56 PM 48.2 °F - 34.5 °F 59% 30.15 in 12.0 mi East 3.5 mph - N/A   Clear
6:56 PM 42.4 °F - 37.2 °F 82% 30.16 in 12.0 mi SSE 2.3 mph - N/A   Clear
7:56 PM 39.6 °F - 35.4 °F 85% 30.18 in 12.0 mi Calm Calm - N/A   Clear
8:56 PM 37.2 °F - 34.7 °F 91% 30.20 in 12.0 mi Calm Calm - N/A   Clear
9:56 PM 35.4 °F - 34.3 °F 96% 30.19 in 12.0 mi South 1.2 mph - N/A   Clear
10:56 PM 33.3 °F - 32.5 °F 97% 30.20 in 12.0 mi North 2.3 mph - N/A   Clear
11:56 PM 32.0 °F - 31.6 °F 99% 30.20 in 8.0 mi NNE 2.3 mph - N/A   Clear